Location: Unspecified
(0.0000°N, 0.0000°E)
Time: 12:02:34
(UTC+00:00)

USA 125 - Visible Passes

Search period start: 25 March 2019 00:00
Search period end: 04 April 2019 00:00
Orbit: 363 x 39930 km, 64.0° (Epoch: 09 October)

Date Brightness Start Highest point End Pass type
(mag) Time Alt. Az. Time Alt. Az. Time Alt. Az.
25 Mar ? 10:34:24 10° ENE 14:39:16 35° NNE 18:50:45 10° NNE visible
26 Mar ? 10:30:50 10° ENE 14:34:27 35° NNE 18:43:20 10° NNE visible
27 Mar ? 10:27:17 10° ENE 14:29:37 35° NNE 18:35:54 10° NNE visible
28 Mar ? 10:23:45 10° ENE 14:24:46 34° NNE 18:28:28 10° NNE visible
29 Mar ? 10:20:13 10° ENE 14:19:54 34° NNE 18:21:02 10° NNE visible
30 Mar ? 10:16:41 10° ENE 14:15:00 34° NNE 18:13:35 10° NNE visible
31 Mar ? 10:13:09 10° ENE 14:10:07 33° NNE 18:06:08 10° NNE visible
01 Apr ? 10:09:38 10° ENE 14:05:12 33° NNE 17:58:41 10° NNE visible
